Location: Sternwarte_Laufen
(47.9344°N, 12.9346°E)
Time: 16:01:21
(UTC+02:00)

Tiangong - Visible Passes

Search period start: 10 May 2026 00:00
Search period end: 20 May 2026 00:00
Orbit: 379 x 384 km, 41.5° (Epoch: 10 May)

Date Brightness Start Highest point End Pass type
(mag) Time Alt. Az. Time Alt. Az. Time Alt. Az.
10 May -0.8 04:29:43 16° SW 04:31:28 25° S 04:34:07 10° ESE visible
11 May -0.4 03:31:45 20° SSE 03:31:45 20° SSE 03:33:31 10° ESE visible
12 May -0.9 04:05:57 22° SSW 04:06:41 25° S 04:09:22 10° SE visible
13 May 0.2 03:08:05 14° SE 03:08:05 14° SE 03:08:46 10° ESE visible
13 May -0.6 04:40:13 11° WSW 04:42:22 20° SSW 04:44:46 10° SE visible
14 May -0.6 03:42:28 21° SSE 03:42:28 21° SSE 03:44:23 10° SE visible
15 May -0.4 04:17:04 16° SSW 04:17:20 16° SSW 04:19:21 10° SSE visible
